{"data":{"norad_id":61579,"epoch":"2026-09-21T17:25:47.616384Z","epoch_age_seconds":86094,"freshness":"FRESH","line1":"1 61579U 24187F   26264.72624556 -.00003480  00000+0 -23864-4 0  9990","line2":"2 61579  53.1586  49.5998 0000705  92.7988 267.3111 15.69726251111498","mean_motion":15.69726251,"eccentricity":7.05e-5,"inclination_deg":53.1586,"raan_deg":49.5998,"arg_perigee_deg":92.7988,"mean_anomaly_deg":267.3111,"bstar":-2.3864e-5,"rev_number":11149,"period_min":91.735740488677,"perigee_km":359.20523056365,"apogee_km":360.15526279543,"semimajor_km":6737.8172466795,"source":"CELESTRAK","updated_at":"2026-09-22T09:00:49.391006Z"}}